Hourly Weather Roundup
Issued by NWS Central Illinois

Home | Current Version | Previous Version | Text Only | Print | Product List | Glossary On
Versions: 1 2 3 4 5 6 7 8 9 10 11 12 13 14 15 16 17 18 19 20 21 22 23 24 25 26 27 28 29 30 31 32 33 34 35 36 37 38 39 40 41 42 43 44 45 46 47 48 49 50
000
NZUS43 KILX 290810
HWRILX

AREA WEATHER ROUNDUP
NATIONAL WEATHER SERVICE, LINCOLN IL
300 AM CDT SUN MAY 29 2016


CITY           SKY/WX    TMP DP  RH WIND       PRES   REMARKS
BLOOMINGTON    PTCLDY    64  64 100 SW6       30.02S
CHAMPAIGN      PTCLDY    65  61  87 E6        30.03S
DANVILLE       RAIN      66  61  83 CALM      30.01S
DECATUR        CLEAR     68  65  90 SW6       30.02R
EFFINGHAM      CLEAR     67  67 100 CALM      30.05S
FLORA          PTCLDY    69  67  94 CALM      30.05R
GALESBURG      CLEAR     64  59  82 SW8       29.97S
JACKSONVILLE   CLEAR     67  63  86 S5        30.01S
LACON          CLEAR     64  61  91 S3        29.97S
LAWRENCEVILLE  CLOUDY    68  67  96 SW5       30.05R
LITCHFIELD     PTCLDY    67  63  87 CALM      30.03S
$$


CITY           SKY/WX    TMP DP  RH WIND       PRES   REMARKS
LINCOLN        PTCLDY    67  66  97 CALM      30.00S
MACOMB         CLEAR     63  60  89 SW7       30.00S
MATTOON        PTCLDY    70  65  84 S6        30.02S
MT CARMEL AP   PTCLDY    70  66  86 CALM      30.05R
OLNEY-NOBLE AP MOCLDY    68  68 100 CALM      30.05S
PARIS          CLEAR     66  65  97 CALM      30.04S
PEORIA         CLEAR     64  62  93 S3        29.98F
PONTIAC        PTCLDY    67  65  94 SW8       29.99F
RANTOUL        PTCLDY    66  62  87 SE5       30.01F
ROBINSON       CLOUDY    65  65  97 CALM      30.06R
SPRINGFIELD    CLOUDY    70  65  84 CALM      30.01S
TAYLORVILLE    MOCLDY    68  66  93 SW5       30.03R
$$

...REGIONAL REPORTS...


CITY           SKY/WX    TMP DP  RH WIND       PRES   REMARKS
CHICAGO O`HARE CLOUDY    65  61  87 SW7       29.94S
KANKAKEE       CLOUDY    64  58  80 SW9       29.99F
MOLINE         CLEAR     68  58  70 S9        29.93F
MOUNT STERLING CLEAR     61  60  94 SW5       30.00R
MOUNT VERNON   MOCLDY    64  61  88 CALM      30.05R
PITTSFIELD     CLEAR     67  63  86 SW5       30.02S
QUINCY         CLEAR     63  59  87 SW7       30.00R
ROCKFORD       PTCLDY    67  62  84 S8        29.95F
$$


CITY           SKY/WX    TMP DP  RH WIND       PRES   REMARKS
BURLINGTON     CLEAR     63  60  90 S7        29.96S
CEDAR RAPIDS   CLEAR     63  61  93 SW8       29.91S
DES MOINES     PTCLDY    62  56  80 W9        29.96R
KIRKSVILLE     CLEAR     62  59  90 SW5       30.00S
OTTUMWA        CLEAR     64  59  83 SW9       29.95R
ST LOUIS       PTCLDY    69  58  67 CALM      30.03R
$$


CITY           SKY/WX    TMP DP  RH WIND       PRES   REMARKS
TERRE HAUTE    MOCLDY    68  65  90 SE5       30.04R
EVANSVILLE     PTCLDY    68  65  90 SW5       30.05S
INDIANAPOLIS   MOCLDY    69  65  86 SE5       30.05R
LAFAYETTE      CLOUDY    64  59  83 CALM      30.03F
MADISON        CLOUDY    66  60  81 S10       29.88F
MILWAUKEE      CLOUDY    66  63  90 SW10      29.91S
$$






USA.gov is the U.S. government's official web portal to all federal, state and local government web resources and services.